User: anonymous   Login
Location: Équennes
(49.7375°N, 1.9622°E)
Time: 03:09:33
(UTC+00:00)
Language:

Cosmos 540 Rocket - Orbit

View from above orbital plane
View from above orbital plane
View from above satellite
View from above satellite

Ground track
Ground track

The orbit data is extracted from the following two-line orbital elements,

1 06324U 72104B   23152.12315506  .00000303  00000-0  96618-4 0  9995
2 06324  74.0790  34.4734 0009290 327.4696  32.5888 14.43932783649137
Epoch (UTC): 01 June 2023 02:57:20
Eccentricity: 0.0009290
inclination: 74.0790°
perigee height: 739 km
apogee height: 752 km
right ascension of ascending node: 34.4734°
argument of perigee: 327.4696°
revolutions per day: 14.43932783
mean anomaly at epoch: 32.5888°
orbit number at epoch: 64913

The dashed part of the orbit path shows where the satellite is in the earth's shadow,  

DLR